Juliana Airport, Sint Maarten

11:16 AM AST on October 19, 2017 (GMT -0400)
Princess Juliana International

Weather History for TNCM - January, 2013

Change the Weather History Date:

Thursday, January 3, 2013

  Actual Average Record
Temperature  
Mean Temperature 78 °F -  
Max Temperature 82 °F 81 °F 86 °F (1998)
Min Temperature 73 °F 72 °F 69 °F (2008)
Cooling Degree Days 12    
Growing Degree Days 28 (Base 50)    
Moisture  
Dew Point 70 °F    
Average Humidity 73    
Maximum Humidity 89    
Minimum Humidity 58    
Precipitation  
Precipitation 0.12 in 0.08 in - ()
Sea Level Pressure  
Sea Level Pressure 30.06 in    
Wind  
Wind Speed 11 mph ()    
Max Wind Speed 20 mph    
Max Gust Speed -    
Visibility 7.9 miles    
Events Rain    
Averages and records for this station are not official NWS values.
T = Trace of Precipitation, MM = Missing Value Source: Averaged Metar Reports

Daily Weather History Graph

Daily Weather History Graph

Search for Another Location

Airport or City:

Trip Planner

Search our weather history database for the weather conditions in past years. The results will help you decide how hot, cold, wet, or windy it might be!

Date:

Astronomy

Jan. 03, 2013 Rise Set
Actual Time 6:44 AM AST 5:49 PM AST
Civil Twilight 6:21 AM AST 6:13 PM AST
Nautical Twilight 5:54 AM AST 6:40 PM AST
Astronomical Twilight 5:27 AM AST 7:07 PM AST
Moon 11:21 PM AST (1/3) 10:48 AM AST (1/3)
Length of Visible Light 11h 52m
Length of Day
11h 05m
Waning Gibbous, 66% of the Moon is Illuminated
Jan 3
Waning Gibbous
Jan 4
Last Quarter
Jan 11
New
Jan 18
First Quarter
Jan 27
Full

Hourly Weather History & Observations

Time (AST) Temp. Heat Index Dew Point Humidity Pressure Visibility Wind Dir Wind Speed Gust Speed Precip Events Conditions
12:00 AM 78.8 °F - 69.8 °F 74% 30.04 in 6.2 mi East 13.8 mph - N/A Rain Light Rain Showers
1:00 AM 77.0 °F - 71.6 °F 83% 30.04 in 6.2 mi East 11.5 mph - N/A   Scattered Clouds
2:00 AM 77 °F - 70 °F 74% 30.03 in 19 mi East 9.2 mph - -   Partly Cloudy
2:00 AM 77.0 °F - 69.8 °F 78% 30.01 in 6.2 mi East 9.2 mph - N/A   Partly Cloudy
3:00 AM 77.0 °F - 71.6 °F 83% 30.01 in 6.2 mi East 10.4 mph - N/A   Mostly Cloudy
4:00 AM 77.0 °F - 69.8 °F 78% 30.01 in 4.3 mi East 12.7 mph - N/A Rain Rain Showers
5:00 AM 74 °F - 70 °F 84% 30.03 in 6 mi East 5.8 mph - - Rain Light Rain Showers
5:00 AM 75.2 °F - 71.6 °F 89% 30.01 in 6.2 mi East 8.1 mph - N/A Rain Light Rain Showers
6:00 AM 77.0 °F - 69.8 °F 78% 30.04 in 6.2 mi East 11.5 mph - N/A   Mostly Cloudy
7:00 AM 75.2 °F - 69.8 °F 83% 30.06 in 3.7 mi ESE 12.7 mph - N/A Rain Rain Showers
8:00 AM 76 °F - 71 °F 80% 30.09 in 19 mi East 13.8 mph - - Rain Light Rain Showers
8:00 AM 77.0 °F - 71.6 °F 83% 30.06 in 6.2 mi East 13.8 mph - N/A   Mostly Cloudy
10:00 AM 80.6 °F 83.9 °F 69.8 °F 70% 30.09 in 6.2 mi East 19.6 mph - N/A   Scattered Clouds
11:00 AM 82 °F - 70 °F 58% 30.10 in 19 mi East 11.5 mph - -   Partly Cloudy
11:00 AM 82.4 °F 86.3 °F 69.8 °F 66% 30.09 in 6.2 mi East 11.5 mph - N/A   Scattered Clouds
12:00 PM 82.4 °F 86.3 °F 69.8 °F 66% 30.06 in 6.2 mi ESE 13.8 mph - N/A   Scattered Clouds
1:00 PM 82.4 °F 86.3 °F 69.8 °F 66% 30.06 in 6.2 mi East 15.0 mph - N/A   Scattered Clouds
2:00 PM 82 °F - 70 °F 59% 30.05 in 25 mi ESE 12.7 mph - -   Partly Cloudy
2:00 PM 82.4 °F 86.3 °F 69.8 °F 66% 30.04 in 6.2 mi ESE 11.5 mph - N/A   Scattered Clouds
3:00 PM 82.4 °F 86.3 °F 69.8 °F 66% 30.04 in 6.2 mi East 12.7 mph - N/A   Scattered Clouds
4:00 PM 80.6 °F 83.9 °F 69.8 °F 70% 30.04 in 6.2 mi East 16.1 mph - N/A   Partly Cloudy
5:00 PM 80 °F - 70 °F 65% 30.06 in 22 mi ESE 12.7 mph - -   Scattered Clouds
5:00 PM 80.6 °F 83.9 °F 69.8 °F 70% 30.04 in 6.2 mi East 12.7 mph - N/A   Partly Cloudy
6:00 PM 78.8 °F - 69.8 °F 74% 30.06 in 6.2 mi East 11.5 mph - N/A   Partly Cloudy
7:00 PM 78.8 °F - 69.8 °F 74% 30.06 in 6.2 mi East 13.8 mph - N/A   Partly Cloudy
8:00 PM 78.8 °F - 69.8 °F 74% 30.09 in 6.2 mi East 11.5 mph - N/A   Partly Cloudy
9:00 PM 78.8 °F - 69.8 °F 74% 30.12 in 6.2 mi East 16.1 mph - N/A   Partly Cloudy
10:00 PM 78.8 °F - 69.8 °F 74% 30.12 in 6.2 mi East 13.8 mph - N/A Rain Light Rain Showers
11:00 PM 79 °F - 70 °F 68% 30.13 in 19 mi East 13.8 mph - -   Partly Cloudy
11:00 PM 78.8 °F - 69.8 °F 74% 30.12 in 6.2 mi East 13.8 mph - N/A   Scattered Clouds